EW7074 Weather Reports


Display with metric or nautical units.
time (UTC)temp
F
wind
direction
speed
MPH
gust
MPH
rain 1hr
in
rain 24hr
in
rain mn
in
humidity
%
barometer
mb
20260506022841 72 74 1.0 5.0 0.00 0.02 0.02 86 1015.1
20260506022334 72 62 1.0 5.0 0.00 0.02 0.02 86 1015.1
20260506022105 72 91 0.0 4.0 0.00 0.02 0.02 86 1015.1
20260506021332 72 70 0.0 2.0 0.00 0.02 0.02 86 1015.1
20260506020313 72 62 0.0 4.0 0.00 0.02 0.02 85 1015.1
20260506015804 73 75 0.0 4.0 0.00 0.02 0.02 85 1015.2
20260506015257 73 65 0.0 3.0 0.00 0.02 0.02 84 1015.3
20260506014243 73 64 0.0 4.0 0.00 0.02 0.02 84 1015.5
20260506013731 73 66 0.0 4.0 0.00 0.02 0.02 84 1015.5
20260506013717 73 87 0.0 3.0 0.00 0.02 0.02 84 1015.5
20260506012705 73 105 0.0 3.0 0.00 0.02 0.02 84 1015.5
20260506012153 73 72 0.0 1.0 0.00 0.02 0.02 84 1015.5
20260506011642 73 96 0.0 2.0 0.00 0.02 0.02 84 1015.5
20260506011132 73 99 0.0 4.0 0.00 0.02 0.02 84 1015.5
20260506010853 73 82 0.0 4.0 0.00 0.02 0.02 84 1015.5
20260506010345 74 78 1.0 3.0 0.00 0.02 0.02 84 1015.5
20260506005555 74 58 1.0 5.0 0.00 0.02 0.02 84 1015.5
20260506005041 74 71 2.0 6.0 0.00 0.02 0.02 84 1015.4
20260506004532 74 58 1.0 6.0 0.00 0.02 0.02 83 1015.2
20260506004026 74 92 1.0 5.0 0.00 0.02 0.02 84 1015.2
20260506003514 74 78 1.0 5.0 0.00 0.02 0.02 83 1015.2
20260506003004 74 74 2.0 6.0 0.00 0.02 0.02 83 1015.2
20260506002452 74 58 3.0 6.0 0.00 0.02 0.02 83 1015.3
20260506002205 75 79 2.0 6.0 0.00 0.02 0.02 83 1015.2
20260506000914 75 51 3.0 8.0 0.00 0.02 0.02 82 1015.2
20260506000401 75 49 3.0 9.0 0.00 0.02 0.02 82 1015.1
20260506000111 75 73 3.0 9.0 0.00 0.02 0.02 82 1015.1
20260505235331 76 71 3.0 8.0 0.00 0.02 0.02 82 1015.1
20260505234821 76 77 2.0 8.0 0.00 0.02 0.02 82 1015.0
20260505234311 76 83 2.0 7.0 0.00 0.02 0.02 82 1015.0
20260505233758 76 60 2.0 6.0 0.00 0.02 0.02 82 1015.1
20260505232738 76 67 2.0 7.0 0.00 0.02 0.02 82 1014.9
20260505232500 76 84 2.0 7.0 0.00 0.02 0.02 82 1014.9
20260505231716 76 52 2.0 7.0 0.00 0.02 0.02 82 1014.9
20260505231204 76 63 3.0 7.0 0.00 0.02 0.02 82 1014.8
20260505230653 76 76 3.0 9.0 0.00 0.02 0.02 82 1014.9
20260505230143 76 55 3.0 9.0 0.00 0.02 0.02 82 1014.9
20260505225640 77 72 2.0 6.0 0.00 0.02 0.02 82 1014.9
20260505224909 77 85 2.0 7.0 0.00 0.02 0.02 82 1015.0
20260505224135 77 63 3.0 7.0 0.00 0.02 0.02 82 1014.9
20260505223636 77 79 3.0 12.0 0.00 0.02 0.02 82 1014.9
20260505223135 78 95 3.0 12.0 0.00 0.02 0.02 81 1014.8
20260505222636 78 116 2.0 9.0 0.00 0.02 0.02 81 1014.9
20260505222136 78 84 3.0 8.0 0.00 0.02 0.02 81 1014.9
20260505221636 78 78 3.0 8.0 0.00 0.02 0.02 81 1015.0
20260505221406 78 81 3.0 6.0 0.00 0.02 0.02 80 1014.9
20260505220635 78 72 3.0 7.0 0.00 0.02 0.02 80 1015.0
20260505220407 79 86 3.0 7.0 0.00 0.02 0.02 80 1014.9
20260505215633 79 70 2.0 6.0 0.00 0.02 0.02 79 1015.0
20260505215134 79 68 2.0 6.0 0.00 0.02 0.02 79 1014.9
20260505214632 80 71 1.0 6.0 0.00 0.02 0.02 79 1014.8
20260505214131 80 74 1.0 6.0 0.00 0.02 0.02 78 1014.8
20260505213629 80 63 0.0 4.0 0.00 0.02 0.02 78 1014.7
20260505213129 81 72 0.0 0.0 0.00 0.02 0.02 77 1014.7
20260505212629 81 77 0.0 0.0 0.00 0.02 0.02 76 1014.7
20260505212128 82 78 0.0 0.0 0.00 0.02 0.02 75 1014.7
20260505211857 83 77 0.0 0.0 0.00 0.02 0.02 73 1014.6
20260505211123 84 77 0.0 0.0 0.00 0.02 0.02 72 1014.6
20260505210623 84 60 0.0 0.0 0.00 0.02 0.02 71 1014.6
20260505210123 85 60 0.0 0.0 0.00 0.02 0.02 70 1014.5
20260505205623 86 60 0.0 0.0 0.00 0.02 0.02 68 1014.5
20260505205123 87 59 0.0 0.0 0.00 0.02 0.02 66 1014.4
20260505204623 87 37 0.0 0.0 0.00 0.02 0.02 65 1014.4
20260505204124 88 14 0.0 0.0 0.00 0.02 0.02 63 1014.4
20260505203623 89 0 0.0 0.0 0.00 0.02 0.02 63 1014.3
20260505203130 89 0 0.0 0.0 0.00 0.02 0.02 60 1014.3
20260505203123 89 0 0.0 0.0 0.00 0.02 0.02 62 1014.3
20260505202124 89 0 0.0 0.0 0.00 0.02 0.02 60 1014.3
20260505201624 89 0 0.0 0.0 0.00 0.02 0.02 59 1014.3
20260505201124 89 0 0.0 0.0 0.00 0.02 0.02 60 1014.3
20260505200624 89 0 0.0 0.0 0.00 0.02 0.02 59 1014.4
20260505200121 89 0 0.0 0.0 0.00 0.02 0.02 59 1014.4
20260505195621 89 0 0.0 0.0 0.00 0.02 0.02 58 1014.4
20260505195120 90 0 0.0 1.0 0.00 0.02 0.02 59 1014.4
20260505194619 90 0 0.0 1.0 0.00 0.02 0.02 58 1014.3
20260505194119 90 14 0.0 0.0 0.00 0.02 0.02 58 1014.3
20260505193850 90 14 0.0 0.0 0.00 0.02 0.02 58 1014.3
20260505193113 90 14 0.0 3.0 0.00 0.02 0.02 58 1014.2
20260505192614 90 14 0.0 3.0 0.00 0.02 0.02 57 1014.3
20260505192113 90 13 0.0 3.0 0.00 0.02 0.02 58 1014.3
20260505191613 91 15 0.0 3.0 0.00 0.02 0.02 57 1014.3
20260505191337 91 13 0.0 2.0 0.00 0.02 0.02 57 1014.3
20260505190554 90 63 0.0 2.0 0.00 0.02 0.02 58 1014.4
20260505190049 90 64 0.0 2.0 0.00 0.02 0.02 57 1014.3
20260505185544 90 64 1.0 6.0 0.00 0.02 0.02 58 1014.3
20260505185043 90 64 1.0 6.0 0.00 0.02 0.02 58 1014.3
20260505184541 90 30 1.0 5.0 0.00 0.02 0.02 57 1014.3
20260505184036 90 357 0.0 2.0 0.00 0.02 0.02 58 1014.3
20260505183531 91 349 0.0 2.0 0.00 0.02 0.02 57 1014.4
20260505183031 91 3 0.0 2.0 0.00 0.02 0.02 58 1014.4
20260505182530 90 18 0.0 3.0 0.00 0.03 0.02 58 1014.3
20260505182035 90 353 0.0 2.0 0.00 0.05 0.02 58 1014.3
20260505182028 90 19 0.0 3.0 0.00 0.03 0.02 58 1014.3
20260505181025 90 306 1.0 4.0 0.00 0.05 0.02 59 1014.3
20260505180523 89 306 1.0 6.0 0.00 0.06 0.02 58 1014.3
20260505180021 89 275 1.0 7.0 0.00 0.06 0.02 59 1014.3
20260505175515 89 299 1.0 7.0 0.00 0.06 0.02 59 1014.4
20260505175241 89 284 0.0 6.0 0.00 0.06 0.02 59 1014.3
20260505174503 89 302 1.0 6.0 0.00 0.06 0.02 60 1014.3
20260505173950 89 268 1.0 6.0 0.00 0.06 0.02 59 1014.4
20260505173439 89 297 1.0 7.0 0.00 0.06 0.02 59 1014.5
20260505172930 89 258 0.0 7.0 0.00 0.06 0.02 59 1014.5
20260505172419 89 272 0.0 4.0 0.00 0.06 0.02 58 1014.5
20260505171407 89 302 1.0 8.0 0.00 0.06 0.02 59 1014.6
20260505170856 89 278 1.0 8.0 0.00 0.06 0.02 60 1014.7
20260505170347 89 349 1.0 4.0 0.00 0.06 0.02 60 1014.7
20260505165836 89 331 1.0 5.0 0.00 0.06 0.02 59 1014.8
20260505165325 89 314 1.0 5.0 0.00 0.06 0.02 60 1014.9
20260505164814 88 310 1.0 5.0 0.00 0.06 0.02 59 1014.9
20260505164304 88 325 2.0 7.0 0.00 0.06 0.02 60 1015.0
20260505163242 88 353 0.0 6.0 0.00 0.06 0.02 60 1015.1
20260505163003 88 285 1.0 6.0 0.00 0.06 0.02 59 1015.2
20260505162218 88 249 2.0 7.0 0.00 0.06 0.02 60 1015.3
20260505161706 88 273 1.0 7.0 0.00 0.06 0.02 59 1015.3
20260505161153 88 269 1.0 8.0 0.00 0.06 0.02 60 1015.4
20260505160639 88 298 1.0 8.0 0.00 0.06 0.02 60 1015.5
20260505160131 87 249 1.0 8.0 0.00 0.06 0.02 61 1015.7
20260505153258 86 330 1.0 6.0 0.00 0.06 0.02 64 1016.2
20260505152517 86 18 1.0 5.0 0.00 0.06 0.02 63 1016.1
20260505152003 86 303 1.0 7.0 0.00 0.06 0.02 63 1016.2
20260505151449 86 330 1.0 8.0 0.00 0.06 0.02 63 1016.3
20260505150931 86 306 1.0 8.0 0.00 0.06 0.02 63 1016.4
20260505150429 86 316 0.0 5.0 0.00 0.06 0.02 63 1016.4
20260505140305 83 324 0.0 5.0 0.00 0.06 0.02 68 1017.0
20260505130207 77 198 0.0 0.0 0.00 0.06 0.02 80 1017.0
20260505124701 75 196 0.0 0.0 0.00 0.06 0.02 82 1016.9
20260505124159 74 195 0.0 0.0 0.00 0.06 0.02 83 1016.8
20260505123655 74 196 0.0 0.0 0.00 0.06 0.02 83 1016.7
20260505123153 74 196 0.0 0.0 0.00 0.06 0.02 83 1016.7
20260505122653 74 196 0.0 0.0 0.00 0.06 0.02 84 1016.7
20260505122140 73 197 0.0 0.0 0.00 0.06 0.02 84 1016.7
20260505121641 73 197 0.0 0.0 0.00 0.06 0.02 85 1016.6
20260505121140 73 195 0.0 0.0 0.00 0.06 0.02 85 1016.6
20260505120637 72 195 0.0 0.0 0.00 0.06 0.02 86 1016.6
20260505120132 72 198 0.0 0.0 0.00 0.06 0.02 86 1016.5
20260505115630 71 199 0.0 0.0 0.02 0.06 0.02 87 1016.4
20260505115130 71 200 0.0 1.0 0.02 0.06 0.02 87 1016.3
20260505114630 71 199 0.0 1.0 0.02 0.06 0.02 87 1016.2
20260505114131 70 202 0.0 3.0 0.02 0.06 0.02 87 1016.2
20260505113630 70 202 0.0 3.0 0.02 0.06 0.02 88 1016.2
20260505113127 70 195 0.0 1.0 0.02 0.06 0.02 88 1016.2
20260505112626 70 194 0.0 4.0 0.02 0.06 0.02 88 1016.1
20260505112355 69 202 1.0 4.0 0.02 0.06 0.02 88 1016.1
20260505111621 69 201 1.0 4.0 0.02 0.06 0.02 89 1016.1
20260505111615 69 203 1.0 3.0 0.02 0.06 0.02 88 1016.1
20260505110843 69 198 1.0 4.0 0.02 0.06 0.02 89 1016.0
20260505110106 69 207 1.0 3.0 0.02 0.06 0.02 89 1015.8
20260505101543 68 218 0.0 1.0 0.00 0.04 0.00 89 1015.5
20260505101036 68 225 0.0 0.0 0.00 0.04 0.00 89 1015.3
20260505100535 68 225 0.0 0.0 0.00 0.04 0.00 89 1015.2
20260505100035 68 225 0.0 1.0 0.00 0.04 0.00 89 1015.1
20260505095806 68 225 0.0 1.0 0.00 0.04 0.00 89 1015.1
20260505095033 68 229 0.0 0.0 0.00 0.04 0.00 89 1015.0
20260505094534 69 229 0.0 0.0 0.00 0.04 0.00 89 1015.0
20260505094033 69 229 0.0 0.0 0.00 0.04 0.00 89 1014.9
20260505093531 69 229 0.0 0.0 0.00 0.04 0.00 89 1014.9
20260505093028 69 229 0.0 0.0 0.00 0.04 0.00 89 1014.8
20260505092507 69 229 0.0 0.0 0.00 0.04 0.00 89 1014.7
20260505091956 69 229 0.0 0.0 0.00 0.04 0.00 89 1014.7
20260505091448 69 229 0.0 0.0 0.00 0.04 0.00 89 1014.7
20260505090937 69 229 0.0 0.0 0.00 0.04 0.00 89 1014.7
20260505090427 69 229 0.0 0.0 0.00 0.04 0.00 89 1014.6
20260505085918 69 229 0.0 0.0 0.00 0.04 0.00 89 1014.6
20260505085407 69 229 0.0 0.0 0.00 0.04 0.00 89 1014.5
20260505084855 69 229 0.0 0.0 0.00 0.04 0.00 89 1014.5
20260505084346 69 229 0.0 0.0 0.00 0.04 0.00 89 1014.5
20260505084107 69 229 0.0 0.0 0.00 0.04 0.00 89 1014.5
20260505083321 69 229 0.0 0.0 0.00 0.04 0.00 89 1014.5
20260505082812 69 278 0.0 0.0 0.00 0.04 0.00 89 1014.5
20260505082304 69 278 0.0 0.0 0.00 0.04 0.00 89 1014.5
20260505082019 69 278 0.0 0.0 0.00 0.04 0.00 88 1014.3
20260505080730 70 278 0.0 0.0 0.00 0.04 0.00 88 1014.4
20260505080220 70 278 0.0 0.0 0.00 0.04 0.00 88 1014.4
20260505075707 70 284 0.0 0.0 0.00 0.04 0.00 88 1014.2
20260505075155 70 162 0.0 0.0 0.00 0.04 0.00 88 1014.1
20260505074642 70 157 0.0 0.0 0.00 0.04 0.00 88 1014.1
20260505074131 70 157 0.0 0.0 0.00 0.04 0.00 88 1014.1
20260505073618 70 157 0.0 0.0 0.00 0.04 0.00 88 1014.1
20260505073107 70 157 0.0 0.0 0.00 0.04 0.00 87 1014.1
20260505072555 70 157 0.0 0.0 0.00 0.04 0.00 87 1014.2
20260505072046 70 157 0.0 0.0 0.00 0.04 0.00 87 1014.2
20260505071804 70 157 0.0 0.0 0.00 0.04 0.00 87 1014.1
20260505071025 70 157 0.0 0.0 0.00 0.04 0.00 87 1014.1
20260505070513 70 157 0.0 0.0 0.00 0.04 0.00 86 1014.1
20260505070004 70 157 0.0 0.0 0.00 0.04 0.00 86 1014.0
20260505065451 70 157 0.0 0.0 0.00 0.04 0.00 86 1014.0
20260505064942 70 157 0.0 0.0 0.00 0.04 0.00 86 1014.1
20260505064431 71 157 0.0 0.0 0.00 0.04 0.00 86 1014.2
20260505063919 71 160 0.0 0.0 0.00 0.04 0.00 86 1014.1
20260505063408 71 160 0.0 0.0 0.00 0.04 0.00 85 1014.2
20260505062901 71 159 0.0 0.0 0.00 0.04 0.00 85 1014.3
20260505062401 71 159 0.0 0.0 0.00 0.04 0.00 85 1014.3
20260505061858 71 159 0.0 0.0 0.00 0.04 0.00 84 1014.2
20260505061627 72 159 0.0 0.0 0.00 0.04 0.00 84 1014.3
20260505060856 72 159 0.0 0.0 0.00 0.04 0.00 84 1014.2
20260505060356 72 159 0.0 1.0 0.00 0.04 0.00 83 1014.2
20260505055855 72 159 0.0 1.0 0.00 0.04 0.00 83 1014.3
20260505055356 72 159 0.0 3.0 0.00 0.04 0.00 83 1014.5
20260505054352 72 87 0.0 4.0 0.00 0.04 0.00 83 1014.3
20260505053853 72 126 0.0 0.0 0.00 0.04 0.00 83 1014.5
20260505053351 72 126 0.0 0.0 0.00 0.04 0.00 83 1014.5
20260505053122 72 126 1.0 5.0 0.00 0.04 0.00 83 1014.6
20260505051846 72 115 0.0 3.0 0.00 0.04 0.00 83 1014.6
20260505051354 72 120 0.0 3.0 0.00 0.04 0.00 84 1014.6
20260505050841 71 93 0.0 0.0 0.00 0.04 0.00 84 1014.6
20260505050349 72 91 0.0 3.0 0.00 0.04 0.00 84 1014.7
20260505050120 71 91 0.0 3.0 0.00 0.04 0.00 84 1014.7
20260505041059 71 77 1.0 4.0 0.00 0.04 0.00 85 1014.8
20260505040328 71 73 0.0 4.0 0.00 0.04 0.00 86 1014.7
20260505035828 71 93 0.0 4.0 0.00 0.04 0.00 86 1014.8
20260505035326 71 93 0.0 4.0 0.00 0.04 0.00 87 1014.8
20260505034827 71 117 0.0 3.0 0.00 0.04 0.00 88 1014.9
20260505034554 70 117 0.0 3.0 0.00 0.04 0.00 88 1014.9
20260505033823 70 116 0.0 0.0 0.00 0.04 0.00 89 1014.9
20260505033323 70 108 0.0 3.0 0.00 0.04 0.00 89 1014.8
20260505032823 70 72 0.0 2.0 0.00 0.04 0.00 90 1014.8
20260505032324 69 74 0.0 2.0 0.00 0.04 0.00 90 1014.8
20260505031823 69 73 0.0 3.0 0.00 0.04 0.00 91 1014.8
20260505031321 69 69 1.0 4.0 0.00 0.04 0.00 91 1014.8
20260505030824 69 74 1.0 4.0 0.00 0.04 0.00 92 1014.8
20260505030318 69 78 1.0 5.0 0.00 0.04 0.00 92 1014.7
20260505030015 68 77 1.0 5.0 0.00 0.04 0.04 92 1014.7
20260505025232 68 100 0.0 3.0 0.00 0.04 0.04 92 1014.6
20260505024720 68 64 0.0 4.0 0.00 0.04 0.04 92 1014.8
20260505024439 68 63 0.0 4.0 0.00 0.04 0.04 92 1014.8
20260505023654 68 180 0.0 0.0 0.00 0.04 0.04 92 1014.8
20260505023140 68 180 0.0 0.0 0.00 0.04 0.04 92 1014.8